Regional Weather Roundup
Issued by NWS Charleston, SC

Home | Current Version | Previous Version | Text Only | Print | Product List | Glossary On
Versions: 1 2 3 4 5 6 7 8 9 10 11 12 13 14 15 16 17 18 19 20 21 22 23 24 25 26 27 28 29 30 31 32 33 34 35 36 37 38 39 40 41 42 43 44 45 46 47 48 49 50
000
ASUS42 KCHS 301325
RWRCHS

REGIONAL WEATHER ROUNDUP
NATIONAL WEATHER SERVICE CHARLESTON SC
900 AM EDT THU OCT 30 2014

NOTE: "FAIR" INDICATES FEW OR NO CLOUDS BELOW 12,000 FEET WITH NO
SIGNIFICANT WEATHER AND/OR OBSTRUCTIONS TO VISIBILITY.

NOT ALL STATIONS ARE QUALITY CONTROLLED BY THE NATIONAL
WEATHER SERVICE. USE DATA WITH CAUTION...ESPECIALLY
DEWPOINT OBSERVATIONS.

SCZ027-030-031-034>040-042>050-301400-
...SOUTH CAROLINA...

CITY           SKY/WX    TMP DP  RH WIND       PRES   REMARKS
N CHARLESTON   MOSUNNY   62  52  69 NE9       30.00R
WATERFRONT PRK   N/A     61 N/A N/A N16         N/A
FORT JOHNSON   NOT AVBL
JOHNS ISLAND   SUNNY     63  59  88 N9        30.00R
PINOPOLIS      NOT AVBL
MONCKS CORNER  FAIR      63  55  77 NE8       30.00S HAZE
SUMMERVILLE    FAIR      59  57  94 N7        30.01R
BEAUFORT MCAS    N/A    N/A N/A N/A MISG        N/A
BEAUFORT ARPT  CLOUDY    63  61  94 N13       29.99R
HILTON HEAD IS CLOUDY    66  64  94 N7        29.99R
GEORGETOWN     NOT AVBL
WALTERBORO     SUNNY     63  59  88 NE5       30.02R
ORANGEBURG     SUNNY     60  47  61 N9        30.02R
BARNWELL       FAIR      59  50  72 N7        30.03R
AIKEN          FAIR      57  50  77 N9        30.07R
MANNING        FAIR      61  52  72 N7        30.02R
KINGSTREE      NOT AVBL
COLUMBIA       SUNNY     58  46  64 N6        30.04R
SUMTER         SUNNY     58  46  64 N12       30.01R
FLORENCE       SUNNY     58  47  66 N13       30.02R
MYRTLE BEACH   PTSUNNY   57  52  82 N9        29.99R
N MYRTLE BEACH CLOUDY    57  54  89 N9        29.98S

$$

GAZ063-065-086>088-099>101-113>116-118-119-134-136>141-150-301400-
...GEORGIA...

CITY           SKY/WX    TMP DP  RH WIND       PRES   REMARKS
SAVANNAH ARPT  CLOUDY    66  61  82 NW7       30.00R
HUNTER AAF     MOSUNNY   66  63  88 NW8       29.97R
FORT STEWART   MOSUNNY   64  60  86 NW3       29.98R
STATESBORO     NOT AVBL
SYLVANIA       CLOUDY    66  62  87 NE6       30.02R
CLAXTON        FAIR      59  57  94 CALM      30.01S
THOMSON        SUNNY     53  52  99 N3        30.10R
AUGUSTA-BUSH   MOSUNNY   57  48  72 N6        30.04R
AUGUSTA-DANIEL SUNNY     56  46  69 N9        30.04R
SWAINSBORO     FAIR      55  52  88 MISG      30.03S
VIDALIA        SUNNY     55  52  88 N3        30.03R
ALMA           MOSUNNY   59  51  75 NW5       30.01R
WAYCROSS       CLOUDY    65  58  76 N8        30.02R
JESUP          CLOUDY    66  61  82 N5        30.00S
BRUNSWICK      CLOUDY    66  63  88 NW5       30.00R
SAINT SIMONS   MOSUNNY   64  62  93 NW8       29.99R

$$

SCZ027-028-034-036>038-045-046-048>050-GAZ119-141-301400-
...LAKE AND SUPPLEMENTAL COASTAL OBSERVATIONS...

STATION/POSITION TIME  TEMP    WIND        PRES    WAVE   SWELL
                       AIR SEA DIR/SP/G            HT/PER HT/PER/DIR
                 (UTC) (F)     (DEG/KT/KT) (MB)    (FT/S) (FT/S/D)
UPR LAKE MARION  NOT AVBL
WINYAH BAY       1300   59      20/  5     1015.0S
LAKE MURRAY      1300   58      10/  2/  7 1016.9R
ACE BASIN NERRS  1300   61      10/  3     1015.0S
FORT PULASKI     1300   65     320/ 10/ 12 1015.6R
SAPELO ISLAND    NOT AVBL

$$

ANZ835-935-AMZ111-154-330-350-352-354-374-450-454-472-301400-
...C-MAN AND BUOY OBSERVATIONS...

STATION/POSITION TIME  TEMP    WIND        PRES    WAVE   SWELL
                       AIR SEA DIR/SP/G            HT/PER HT/PER/DIR
                 (UTC) (F)     (DEG/KT/KT) (MB)    (FT/S) (FT/S/D)
FOLLY BEACH CMAN 1300   61      10/ 12/ 14 1015.9R
BUOY 41004       1300   69 77   10/ 16/ 17 1013.6R   3/ 4
BUOY 41008       1300   70 74  360/ 12/ 14 1014.9R   2/ 3
5E ST. MARYS GA  1300      76                N/A     2/ 3
FRYING PAN BUOY  1300   67 72   20/ 16/ 17 1014.6R   3/ 5
BUOY 41025       1300   67      10/ 17/ 19 1014.3R   5/ 6
CAPE LOOKOUT NC  1300   60      20/ 14/ 16 1015.1R
BUOY 41002       1243   76 77  250/ 10/ 12 1014.9R   2/ 6   2/140/ 6
BUOY 41010       1300   78 81  340/  2/  4 1015.1R   4/ 7   3/110/ 7
BUOY 41012       NOT AVBL
ST AUGUSTINE FL  1300   68     290/  5/  6 1016.2R
CAPERS NEARSHORE 1200   62      20/ 14/ 17   N/A
FRIPP NEARSHORE  NOT AVBL


$$



USA.gov is the U.S. government's official web portal to all federal, state and local government web resources and services.